270  
ASUS44 KMEG 261310  
RWRMEG  
MEMPHIS CWA HOURLY WEATHER ROUNDUP  
NATIONAL WEATHER SERVICE MEMPHIS TN  
800 AM CDT SAT MAY 26 2018  
   
..WEST TENNESSEE
 
 
 
CITY SKY/WX TMP DP RH WIND PRES REMARKS
 
MEMPHIS INTL PTSUNNY 73 71 93 S7 29.90S  
NWS MEMPHIS N/A 71 N/A N/A MISG N/A  
JACKSON FAIR 71 70 96 S3 29.91S  
COVINGTON CLOUDY 70 70 100 S5 29.90S FOG  
SOMERVILLE CLOUDY 72 70 94 S6 29.90S  
BOLIVAR CLOUDY 70 70 100 CALM 29.92R  
LEXINGTON PTSUNNY 72 70 94 S3 29.92S  
SELMER CLOUDY 70 68 94 CALM 29.92S  
DYERSBURG PTSUNNY 71 69 93 S5 29.90S  
UNION CITY MOSUNNY 70 70 100 SE7 29.88S  
PARIS SUNNY 70 68 94 S6 29.91S  
HUNTINGDON PTSUNNY 70 70 100 S5 29.90F  
 
   
..EASTERN ARKANSAS
 
 
 
CITY SKY/WX TMP DP RH WIND PRES REMARKS
 
JONESBORO PTSUNNY 73 73 100 S8 29.88R  
WEST MEMPHIS FAIR 73 72 96 S8 29.88R  
BATESVILLE CLOUDY 70 69 97 CALM 29.89R  
NEWPORT FAIR 73 70 90 S8 29.88R  
WALNUT RIDGE N/A 72 70 93 CALM 29.88R FOG  
BLYTHEVILLE FAIR 73 69 87 S9 29.88S  
SEARCY FAIR 73 73 100 S6 29.88R  
STUTTGART CLOUDY 72 69 90 SE7 29.89R  
PINE BLUFF CLOUDY 69 67 93 CALM 29.87S  
 
   
..NORTH MISSISSIPPI
 
 
 
CITY SKY/WX TMP DP RH WIND PRES REMARKS
 
TUPELO CLOUDY 71 67 87 SE3 29.93R  
BATESVILLE N/A N/A N/A N/A MISG N/A  
TUNICA N/A 72 68 88 S3 29.91R  
CLARKSDALE PTSUNNY 72 72 100 E3 29.90S FOG  
CORINTH N/A 72 70 94 CALM 29.92R  
GREENWOOD FAIR 73 70 90 SE3 29.90R  
COLUMBUS CLOUDY 70 70 100 S3 29.93R  
STARKVILLE CLOUDY 68 68 100 CALM 29.95R  
GOLDEN TRIANGL CLOUDY 71 69 93 SW5 29.94R  
 
   
..SOUTHEAST MISSOURI
 
 
 
CITY SKY/WX TMP DP RH WIND PRES REMARKS
 
KENNETT FAIR 73 73 100 S7 29.87R FOG  
MALDEN CLOUDY 73 70 88 S5 29.90R FOG  
WEST PLAINS MOSUNNY 70 66 87 CALM 29.91R  
POPLAR BLUFF PTSUNNY 72 71 97 CALM 29.88R  
CAPE GIRARDEAU PTSUNNY 73 69 87 SW5 29.88R  
 
   
..NORTHWEST ALABAMA
 
 
 
CITY SKY/WX TMP DP RH WIND PRES REMARKS
 
MUSCLE SHOALS CLOUDY 72 69 90 S3 29.96R  
 
   
..MIDDLE TENNESSEE
 
 
 
CITY SKY/WX TMP DP RH WIND PRES REMARKS
 
NASHVILLE PTSUNNY 73 66 78 S6 29.95R  
CLARKSVILLE FAIR 70 66 87 SW7 29.91S  
DICKSON MOSUNNY 72 68 88 SW9G15 29.93S  
COLUMBIA CLOUDY 72 72 100 S6 29.93R FOG  
LEWISBURG CLOUDY 70 68 94 CALM 29.95R  
 
   
..WESTERN KENTUCKY
 
 
 
CITY SKY/WX TMP DP RH WIND PRES REMARKS
 
PADUCAH FAIR 72 69 90 CALM 29.89R  
FORT CAMPBELL CLOUDY 70 70 100 S8 29.90  
 
   
..CENTRAL ARKANSAS
 
 
 
CITY SKY/WX TMP DP RH WIND PRES REMARKS
 
LITTLE ROCK PTSUNNY 71 70 96 CALM 29.87S  
 
SKY/WX REPORTED AS FAIR MEANS FEW OR NO CLOUDS BELOW  
12 THOUSAND FEET.  
 
 
 
CLICK HERE TO GO TO PREVIOUS BULLETINS.

The Nexlab TN Page
The Nexlab MS Page
The Nexlab AR Page Main Text Page